GFSMW_850_spd_258.txt.gz
Wind_Speed
22 26 26 30 31 32 37 40 42 42 44 45 43 39 41 35 34 36 40 39 39 37 36 31 31 31 25 23 26 24 21 19 19 17 15 10 13 16 16 16 16 15 14
33 22 23 27 32 32 37 40 41 41 44 45 47 42 37 35 36 45 43 42 41 40 40 38 33 34 29 27 26 27 23 22 23 22 17 13 10 14 16 18 17 16 13
34 32 25 25 30 32 35 39 41 42 44 42 38 35 32 34 42 48 49 46 44 44 43 42 37 36 35 30 30 30 29 27 25 25 19 15 14 15 14 20 20 20 21
37 37 33 25 30 31 31 35 37 39 41 40 38 40 41 45 51 51 51 42 40 43 44 45 43 40 38 34 33 32 30 28 28 28 27 19 12 15 10 17 20 21 22
41 39 37 34 25 29 32 33 36 38 39 42 42 41 41 41 34 33 37 49 37 42 45 48 47 46 44 41 38 36 36 31 28 29 28 26 19 14 12 12 20 21 21
45 43 36 34 35 29 31 32 34 37 40 42 47 48 48 39 33 34 34 36 41 45 48 50 50 49 48 46 44 40 39 36 33 29 28 30 28 22 19 13 15 20 21
32 40 43 36 34 35 33 35 34 37 39 44 48 50 50 48 45 40 40 34 42 47 53 52 53 53 52 50 46 45 44 42 38 39 32 29 30 26 23 18 19 13 17
30 38 39 39 37 33 35 36 36 36 37 42 48 49 49 49 48 46 41 41 42 43 47 51 53 54 53 52 51 49 48 46 45 42 43 34 32 29 27 26 26 15 15
33 31 36 37 36 38 35 38 39 37 38 44 44 48 49 50 50 49 49 48 45 44 43 44 48 51 53 54 53 53 52 49 47 47 45 43 35 33 31 27 31 27 18
25 31 32 36 34 33 38 39 42 40 43 42 42 43 48 51 51 51 52 51 49 47 45 44 43 43 47 52 54 55 54 53 51 49 42 44 42 36 36 34 36 35 25
26 28 30 32 32 34 34 36 39 40 42 44 41 43 44 49 53 54 53 52 53 51 49 49 47 45 43 43 49 51 52 54 53 49 45 46 45 43 39 43 42 41 33
21 15 11 12 20 27 30 32 39 41 43 46 44 43 44 46 49 53 55 56 57 55 54 52 49 46 43 43 44 45 46 50 51 51 46 45 41 44 44 49 47 47 44
16 9 4 3 2 6 15 23 28 36 39 38 38 45 45 43 49 51 52 52 52 53 51 48 48 53 51 48 47 45 44 45 47 47 49 50 45 47 51 52 49 47 47
13 9 9 9 5 2 3 8 15 27 31 35 38 39 47 46 46 48 49 48 48 49 45 47 49 49 48 48 50 48 47 46 45 45 44 45 46 50 50 51 51 49 51
22 14 14 16 13 9 7 3 6 11 25 35 33 40 45 48 48 48 49 48 46 45 42 41 44 43 41 43 47 49 49 49 46 45 43 44 44 46 46 48 49 49 48
23 26 14 15 18 17 13 9 1 9 16 26 32 27 32 35 45 45 45 46 47 41 38 40 41 41 42 46 47 46 46 45 47 47 46 43 42 41 41 41 43 42 45
18 27 29 20 19 20 19 18 13 6 3 11 19 29 27 29 34 39 40 43 45 41 39 41 40 42 43 43 43 42 41 41 42 45 47 46 41 38 36 38 38 34 38
13 13 30 26 27 20 18 19 23 21 14 8 3 11 17 26 25 30 36 38 38 38 39 40 41 42 41 41 41 39 38 38 40 42 45 44 41 37 34 32 32 34 37
8 8 13 25 30 30 20 19 25 27 24 19 14 6 9 17 21 27 32 35 36 36 37 39 41 43 40 39 38 38 35 42 40 40 41 42 38 35 30 30 31 35 36
15 12 9 12 24 27 30 18 20 25 30 27 25 19 10 9 16 23 26 30 33 35 36 37 39 39 38 39 36 36 38 41 41 39 40 39 36 33 33 33 32 32 38
17 20 12 13 13 15 22 27 24 22 23 24 27 26 22 13 7 19 24 25 29 33 35 37 37 36 36 37 34 33 41 40 41 41 41 39 38 35 35 32 30 33 39
20 17 14 11 13 11 12 17 23 24 22 24 24 27 28 25 13 6 22 27 28 32 34 35 35 37 36 35 32 33 37 36 37 39 39 38 38 38 34 34 35 38 41
17 18 16 14 13 13 12 12 14 17 22 22 23 27 25 29 24 16 8 17 31 35 36 36 37 37 36 33 32 31 34 32 32 31 34 34 33 33 34 38 41 43 48
16 18 18 16 16 17 18 16 16 17 16 20 22 23 28 25 26 21 17 11 6 22 34 38 36 36 38 37 37 36 36 37 34 32 32 32 36 40 39 43 47 51 51
16 16 17 20 20 20 18 17 17 17 15 13 14 19 19 24 23 23 19 18 12 8 11 23 37 40 39 36 32 32 34 35 34 33 34 37 38 39 39 41 43 45 41
16 16 16 17 21 21 21 18 18 17 16 16 13 12 12 15 17 20 21 16 15 15 3 3 10 24 29 30 28 28 32 34 34 35 36 37 36 36 38 41 41 41 43

GFSMW_850_spd_264.txt.gz
Wind_Speed
30 31 29 32 37 35 30 45 48 49 45 45 48 37 43 39 38 37 37 37 34 41 36 34 29 30 32 30 28 26 24 24 20 17 20 18 18 19 18 13 11 15 18
36 31 30 29 34 32 36 43 50 50 51 49 48 45 45 40 44 36 38 38 35 37 41 36 32 33 33 30 28 31 29 28 26 22 24 18 17 18 20 21 22 24 22
38 43 33 34 29 39 35 36 50 52 54 52 46 49 37 38 37 41 37 40 39 36 42 41 36 36 35 35 33 33 34 33 32 28 23 13 10 18 19 22 21 24 23
40 38 43 40 34 24 35 31 47 52 54 51 49 48 47 46 43 47 43 43 44 41 39 43 42 37 39 37 38 36 35 32 35 35 29 24 16 16 14 24 24 26 28
44 42 46 44 42 38 27 37 38 49 53 49 50 50 51 42 46 43 46 42 45 45 42 43 42 40 40 39 39 40 38 37 35 38 38 26 24 23 19 21 24 29 32
27 24 43 45 45 44 42 30 40 45 48 48 51 53 53 51 45 45 45 48 46 47 47 43 47 47 41 43 42 40 39 38 40 37 39 40 36 29 24 15 16 19 25
31 32 31 23 21 44 48 42 39 45 43 46 49 54 55 54 47 48 49 52 53 50 52 47 48 49 51 47 45 44 42 40 40 42 37 37 40 39 27 24 23 21 24
29 30 31 34 30 19 36 42 36 45 46 49 53 53 54 50 55 46 50 53 58 54 50 52 52 50 49 52 49 47 47 44 42 41 42 36 37 37 36 31 29 22 22
31 35 36 36 32 30 26 25 42 52 51 48 52 50 53 56 52 51 51 55 55 50 43 49 52 54 52 51 52 50 50 48 48 45 42 44 36 37 39 35 34 34 29
34 36 38 38 34 32 34 33 30 40 55 48 46 51 53 57 52 52 49 50 53 50 45 43 49 52 53 53 52 52 51 51 50 49 47 47 46 41 36 38 38 38 37
32 35 35 34 31 27 35 32 32 33 35 47 48 48 52 55 58 48 54 49 48 50 46 41 46 48 51 52 52 52 52 52 52 51 51 50 49 49 49 38 41 41 42
26 28 32 35 32 26 32 30 26 22 34 43 47 45 47 51 51 55 49 51 48 49 49 46 43 46 47 49 51 51 51 52 53 54 52 52 49 50 50 50 46 45 45
24 27 31 37 36 30 28 22 17 13 6 21 43 46 45 45 48 53 57 47 48 47 49 48 47 46 46 45 47 48 48 49 51 52 53 53 50 50 50 50 50 48 46
21 26 31 36 32 32 30 24 23 19 12 8 6 37 46 47 50 53 51 54 47 48 49 50 49 48 48 46 46 46 47 48 50 50 50 50 51 52 51 50 51 48 47
17 24 25 32 38 36 32 33 26 24 21 15 7 10 16 44 49 50 46 48 49 46 51 51 49 50 49 49 47 47 47 47 48 50 51 51 51 50 50 50 50 50 48
20 22 21 29 36 40 36 31 32 26 20 18 17 12 12 10 36 43 42 42 45 46 47 48 51 49 51 52 49 48 47 48 49 50 51 52 52 53 52 52 51 50 53
21 21 26 18 27 37 38 37 34 32 29 20 15 14 16 15 12 23 42 43 43 43 48 46 47 47 50 50 50 50 48 46 47 48 49 51 53 53 53 53 52 53 54
22 22 21 18 22 28 33 35 35 35 32 32 26 20 13 15 20 16 12 32 43 45 47 47 44 43 46 47 49 50 49 49 48 47 47 48 47 49 49 51 53 54 56
20 22 24 19 18 24 23 24 30 31 33 33 30 29 26 19 13 20 18 11 16 36 40 39 39 45 47 45 47 47 48 50 52 49 48 49 49 48 48 48 48 53 56
20 22 22 21 18 23 27 18 21 24 29 33 28 27 27 26 24 16 19 22 18 18 26 31 37 41 42 41 43 46 46 47 49 52 52 52 52 51 48 46 46 49 53
20 21 20 19 20 18 23 22 23 24 19 25 29 23 25 25 24 24 18 15 28 23 23 24 30 37 38 40 45 44 46 46 48 51 53 55 54 54 51 47 47 43 44
18 18 20 20 19 20 21 20 20 21 23 16 22 26 21 24 23 22 24 20 8 26 27 29 29 24 29 35 41 41 41 43 47 51 52 52 51 51 50 46 46 43 43
18 19 19 19 19 20 20 22 22 26 24 22 17 19 22 20 22 22 22 24 21 14 7 21 25 28 30 29 34 34 35 38 42 44 46 45 42 45 45 44 45 45 45
18 19 19 19 20 21 20 20 22 26 25 25 25 20 20 20 18 18 20 21 23 22 20 14 11 20 24 28 29 32 33 35 40 40 45 44 40 41 45 46 49 49 47
18 17 19 20 20 20 20 21 22 24 25 24 27 28 26 22 19 17 19 19 16 20 22 21 21 17 14 16 24 30 34 38 42 45 44 49 49 47 48 49 50 51 50
18 19 18 20 21 20 20 20 23 23 25 23 22 27 28 25 23 22 19 10 13 13 14 19 19 18 22 18 15 17 30 35 39 42 45 47 52 51 53 51 52 53 53

GFSMW_850_spd_270.txt.gz
Wind_Speed
34 30 27 25 23 18 13 20 33 38 37 39 38 40 44 45 44 44 43 40 40 40 38 33 30 29 30 32 30 27 25 24 24 23 23 23 18 18 18 17 16 17 16
35 27 21 17 16 17 15 9 17 41 45 45 43 42 44 46 51 47 44 41 42 42 42 39 36 35 33 33 31 32 30 26 30 30 26 22 23 25 24 23 22 21 21
40 39 39 31 24 16 11 9 13 23 45 53 50 49 47 43 46 46 45 45 46 45 45 44 41 39 38 37 36 36 34 34 35 35 26 16 14 28 29 29 27 26 26
40 42 43 41 32 22 13 8 13 11 32 45 54 58 56 54 55 52 51 49 47 47 45 45 46 44 43 42 41 40 39 35 39 39 38 28 18 20 18 31 31 30 29
35 39 42 40 32 25 21 11 10 12 15 38 48 62 60 57 53 53 54 53 51 51 47 47 48 49 48 46 46 45 45 41 40 46 43 40 34 21 26 31 34 36 35
38 40 39 35 35 29 24 19 10 5 12 15 41 52 63 55 55 52 55 57 55 53 52 50 49 49 51 52 50 50 48 46 44 45 48 49 45 43 35 30 29 33 33
37 41 40 38 38 36 26 24 18 11 6 11 20 43 54 57 56 57 58 60 60 58 56 54 53 53 52 55 54 52 52 50 48 47 50 52 50 45 40 35 31 32 32
29 37 39 36 36 34 28 26 23 17 12 14 16 20 43 55 59 56 58 58 60 61 59 58 57 56 53 53 56 56 54 53 51 49 49 52 54 51 49 44 40 36 33
25 31 34 34 35 33 31 30 28 26 18 18 19 19 20 44 55 60 58 60 60 61 63 63 60 59 58 56 55 58 58 57 55 53 51 51 51 55 52 50 48 43 38
22 27 22 29 33 33 29 30 28 29 24 18 20 25 24 25 47 57 59 57 57 56 60 62 61 61 60 59 58 56 59 59 59 57 55 53 53 52 54 56 53 49 48
22 23 23 23 30 34 34 30 36 31 26 19 16 24 25 23 30 47 49 55 56 58 57 62 62 60 62 61 61 59 57 62 62 61 60 57 54 54 53 54 55 55 53
18 23 26 32 35 34 36 37 31 38 29 22 19 16 23 23 27 29 53 42 46 54 55 62 63 61 61 64 63 62 61 62 64 65 64 62 58 57 55 54 56 56 56
16 17 23 27 33 35 34 36 35 32 34 25 22 17 13 23 26 36 34 49 31 50 56 58 67 65 61 63 64 62 61 61 63 63 67 66 62 60 58 58 57 57 59
16 17 21 26 28 29 31 33 35 35 33 29 22 20 13 14 22 26 28 30 52 55 45 58 64 68 65 64 67 64 62 60 61 61 65 66 66 63 61 59 58 57 58
19 24 24 25 27 27 31 35 29 34 32 30 25 21 17 15 11 22 20 29 43 53 54 57 61 69 70 64 64 60 58 58 59 61 62 64 65 63 62 59 57 56 56
20 22 22 27 27 22 29 34 32 25 32 30 28 25 19 17 18 18 16 22 31 38 46 50 61 59 65 68 66 58 56 56 57 58 60 60 61 60 59 60 55 53 54
17 21 20 22 22 21 23 31 33 23 26 24 27 30 24 22 21 15 14 19 19 22 33 36 32 48 59 72 59 55 53 54 57 58 58 58 59 58 57 57 56 55 55
20 25 14 18 23 23 25 28 32 24 28 26 25 26 29 25 24 21 13 14 17 25 20 24 21 36 42 39 35 45 52 55 56 58 56 56 57 57 55 55 54 55 56
22 14 11 19 24 24 26 25 27 28 31 31 26 26 27 27 26 25 23 21 21 13 32 25 17 16 30 31 44 46 57 60 57 57 56 58 57 56 54 52 53 52 52
11 10 16 20 24 26 27 28 26 28 33 32 28 24 23 26 25 25 23 21 20 20 18 19 25 18 18 19 38 48 56 45 56 55 59 58 57 55 54 53 51 51 48
8 12 17 19 21 26 28 28 27 30 31 29 27 23 22 22 23 23 22 21 20 20 20 15 16 14 19 21 21 19 41 35 42 53 51 58 58 56 53 52 49 48 41
12 15 17 19 23 25 27 25 29 31 31 28 26 25 25 23 24 22 22 23 21 21 23 21 17 17 14 16 24 20 30 41 34 33 33 23 24 50 55 51 50 48 43
16 17 18 21 24 24 27 26 29 32 30 27 25 26 26 26 27 25 22 21 23 23 23 23 23 22 22 14 8 14 17 28 34 39 50 67 62 46 49 50 46 46 50
17 17 19 21 24 25 28 27 30 31 27 26 27 26 27 28 30 28 23 23 19 18 22 23 22 22 23 24 20 14 20 14 15 33 31 34 42 46 48 40 42 47 38
15 17 18 19 20 24 27 29 31 29 29 27 31 29 28 29 31 29 25 23 18 19 19 20 21 21 20 21 22 23 23 20 16 15 16 27 29 46 38 31 29 38 33
17 19 20 22 24 27 29 31 29 26 27 26 31 29 29 30 31 31 31 25 20 17 15 15 17 21 18 16 16 16 19 18 16 7 14 22 24 30 43 56 48 50 38

GFSMW_850_spd_276.txt.gz
Wind_Speed
32 29 25 18 13 12 11 9 7 15 21 26 33 37 40 38 40 43 44 43 41 39 38 37 35 34 35 34 32 31 31 30 29 27 26 23 23 23 22 20 20 20 17
38 35 29 22 16 16 15 12 8 10 18 24 30 34 38 36 35 41 45 45 43 43 42 41 40 38 37 36 35 35 35 33 33 32 28 26 27 29 28 28 24 25 24
36 36 34 26 21 15 16 16 14 8 11 18 28 29 33 37 37 38 43 47 46 47 47 46 44 41 40 40 38 38 39 38 36 37 25 13 17 28 32 32 31 29 30
32 33 32 32 26 18 14 15 13 12 9 12 15 28 32 34 39 40 39 42 45 48 49 49 49 45 43 43 41 40 39 41 41 41 40 29 15 19 15 34 35 33 35
29 33 30 30 29 24 16 15 15 11 10 9 10 17 23 31 33 36 37 36 39 41 45 49 52 50 48 47 44 42 43 42 43 46 45 45 33 24 26 25 28 37 37
27 29 31 27 29 28 23 18 18 17 11 9 7 11 21 27 27 30 34 36 40 40 40 46 51 53 51 50 49 47 45 44 45 47 48 48 51 44 37 32 29 29 32
24 27 28 29 27 30 31 25 23 20 18 11 10 9 9 18 25 33 33 36 37 39 39 38 45 50 52 53 53 51 50 49 48 50 50 50 52 51 48 42 36 34 31
22 23 23 25 27 27 29 29 28 26 23 19 13 11 12 11 11 19 31 37 40 42 43 42 39 40 49 50 54 54 52 53 52 52 53 53 53 53 52 51 47 43 41
18 20 20 20 23 26 29 30 29 30 25 24 21 16 14 14 15 13 15 25 32 39 43 44 43 42 43 46 53 55 54 54 55 54 54 55 55 56 56 53 51 51 40
20 20 18 21 23 23 25 28 30 28 29 24 24 23 19 17 17 18 17 17 23 26 34 40 43 46 46 45 47 54 55 56 55 55 56 58 57 57 58 58 57 52 53
18 18 19 22 23 22 23 27 30 28 28 28 24 24 25 21 21 20 20 20 20 21 27 29 39 43 47 48 47 46 49 56 56 56 58 59 59 58 60 60 60 60 55
18 16 20 21 24 24 24 26 30 31 27 30 29 22 23 25 22 23 21 21 20 20 25 29 28 36 47 46 46 48 47 54 55 53 59 61 60 59 58 62 62 63 62
19 17 16 19 22 26 26 27 30 31 30 30 27 28 24 26 25 23 25 22 21 22 23 24 30 36 35 39 44 46 48 50 50 51 54 59 61 60 60 60 61 61 63
18 14 17 20 19 24 28 28 30 30 31 31 30 27 28 26 28 26 25 25 23 22 24 27 27 27 32 40 43 50 51 48 51 51 49 50 53 61 62 62 61 59 61
19 15 21 21 19 25 28 29 30 31 30 30 29 27 25 24 25 29 25 24 26 23 23 26 25 27 27 33 42 52 50 54 49 53 49 52 51 53 58 63 64 60 60
19 17 21 18 18 23 27 30 31 30 29 29 29 28 26 26 25 26 31 23 22 26 23 22 22 23 17 33 40 50 55 50 51 58 66 57 55 63 61 61 64 65 60
16 18 21 14 16 20 25 29 30 28 28 30 28 27 27 27 26 25 26 29 22 23 22 21 23 22 18 22 32 39 43 49 51 59 55 59 63 57 69 64 63 66 63
17 18 18 12 16 19 24 28 28 27 27 29 28 27 27 27 27 26 24 22 25 21 21 19 20 20 19 27 21 20 27 39 46 43 47 54 53 67 68 70 65 63 65
20 19 11 12 15 20 23 27 27 26 26 28 27 28 28 27 26 27 27 23 21 22 23 19 18 19 18 16 25 31 28 27 27 33 42 44 55 54 45 56 58 61 60
19 11 12 14 16 21 25 26 25 25 26 27 27 26 27 26 25 25 28 27 21 18 21 23 19 18 19 16 16 19 21 27 34 36 38 31 31 37 45 74 54 59 63
16 13 14 16 18 21 24 25 24 25 27 27 26 25 26 27 25 24 25 25 24 22 18 19 20 20 20 19 15 16 19 22 19 21 28 27 23 22 31 40 58 61 51
19 17 16 17 19 21 22 24 26 26 27 26 25 25 26 27 26 25 24 23 24 25 25 23 22 19 22 23 20 17 16 20 22 22 18 25 31 30 37 33 37 49 57
18 17 18 19 19 20 21 25 26 28 26 25 26 27 27 27 25 26 27 26 25 24 26 27 28 26 24 25 25 23 20 21 20 19 21 21 23 33 34 32 29 25 22
18 19 21 23 23 22 21 22 23 25 26 26 27 29 28 27 25 27 26 26 27 26 25 25 28 29 29 26 23 24 28 27 24 21 20 19 20 24 27 34 29 32 36
18 21 24 22 20 20 21 23 25 25 25 26 28 29 28 27 28 27 28 26 24 23 24 24 24 29 30 29 28 29 28 28 27 26 26 22 17 14 17 16 21 25 26
20 22 19 18 19 21 22 25 25 24 24 25 27 29 29 28 28 28 31 27 25 24 22 20 22 24 24 25 25 27 26 24 22 23 24 24 21 19 17 15 14 12 17